Meath Environmental Platform

Observations for Trim Patrick St

Time AQI Temp °C Hum % Pres Pa CO μg/m³ H₂S μg/m³ NO μg/m³ NO₂ μg/m³ O₃ μg/m³ SO₂ μg/m³ PM1 μg/m³ PM2.5 μg/m³ PM10 μg/m³
Saturday 8 August 2026
12:52 2 28.7 37 69,118 0 0 1.1 9.26 71.9 11.69 2 7.21 7.93
12:51 2 28.8 38 69,112 0 0.36 1.04 9.71 83.08 12.43 2 7.16 7.88
12:50 2 28.8 38 69,102 0 0 1.06 10.23 75.95 11.44 2 7.18 7.9
12:49 2 28.8 38 69,118 0 0 1.02 9.73 67.42 10.67 2 7.16 7.88
12:48 2 28.8 38 69,139 0 0 1.04 10.14 101.39 12.54 2.86 8.76 9.64
12:47 2 28.9 38 69,138 0 0 1.02 8.39 68.93 11.58 2 7.17 7.89
12:46 2 28.8 38 69,141 0 0 1.06 10.31 76.86 11.35 2 7.2 7.92
12:45 2 28.9 38 69,141 0 0 1.04 9.53 72.01 11.74 2 7.2 7.92
12:44 2 28.9 38 69,143 0 0 1.03 8.77 68.38 11.36 2.86 7.97 8.76
12:43 2 28.9 38 69,143 0 0 1.04 10.1 68.27 10.97 2 7.97 8.77
12:42 2 29 38 69,167 0 0 1 10.06 72.62 11.1 2 7.98 8.78
12:40 2 29.1 38 69,185 0 0 0.98 8.53 69.15 11.73 2 7.18 7.9
12:39 2 29.1 37 69,197 0 0 0.99 8.84 65.84 11.11 2.86 8.8 9.68
12:38 2 29.2 37 69,155 0 0 0.98 8.94 72.53 11.79 2 8.02 8.82
12:36 2 29.2 38 69,159 0 0 0.96 8.76 57.09 10.67 2 7.2 7.92
12:35 2 29.3 39 69,165 0 0 0.94 8.99 66.62 11.72 2 7.13 7.84
12:34 2 29.2 38 69,169 0 0 0.96 9.24 68.47 11.38 2.86 8.71 9.59
12:32 2 29.2 37 69,175 0 0 0.99 8.92 54.43 10.75 2 7.25 7.97
12:31 2 29.1 38 69,177 0 0 0.98 8.73 50.64 10.52 2.86 7.99 8.78
12:28 1 29 39 69,181 0 0 0.98 9.35 68.93 10.41 2.86 8.71 9.58